"Pseudo-MPEC" for P110DoP

Created 2020 May 26 13:07:16 UT using Find_Orb

Click here for an explanation of pseudo-MPECs

 
 Astrometry: 
     P110DoP  C2020 05 20s9n-$.C'@xL=J\fYLw0=N97Ud_:2AstrometryjEi^]KEnwfFI]KF51
     P110DoP  C2020 05 20`I*f!o)O.tredacted;*LZx_click$C(B[emx1;uQy4hereg97q%F51
     P110DoP  C2020 05 208@forbA)]%U=#nAFv(eZ''/2C.Fexplanationd!75*ViK_LQnC.F51

Station data:
(F51) Pan-STARRS 1, Haleakala  (N20.707235 W156.255910)  US/Hawaii.
   Observers N. Primak, A. Schultz, S. Watters, J. Thiel, T. Goggia. Measurer
   PS1 Science Consortium. 1.8-m Ritchey-Chrétien + CCD.

Orbital elements:  P110DoP
   Perihelion 2020 Feb 10.519226 +/- 96.1 TT = 12:27:41 (JD 2458890.019226)
Epoch 2020 May 21.0 TT = JDT 2458990.5   Earth MOID: 0.4927   AutoNEOCP
M  29.35925085 +/- 70               (J2000 ecliptic)
n   0.29218774 +/- 0.401            Peri.  276.28031 +/- 100
a   2.24919986 +/- 2.04             Node   269.11066 +/- 22
e   0.4459368 +/- 0.272             Incl.   27.08632 +/- 26
P   3.37                   H 20.2   G  0.15   U 12.1  SR
q 1.24619886 +/- 0.666    Q 3.25220086 +/- 29.5
From 3 observations 2020 May 20 (28.5 min); mean residual 0".09
Residuals in arcseconds: 
200520 F51  .05+  .07-    200520 F51  .11-  .14+    200520 F51  .05+  .07-    

Ephemerides (geocentric):
Date (UTC) HH   RA              Dec         delta   r     elong  mag " sig PA
---- -- -- --  -------------   -----------  ------ ------ -----  --- ---- ---
2020 05 26 13  19 08 48.155   -31 45 18.06  .70256 1.6149 139.8 21.6  47d  26
2020 05 26 14  19 08 43.954   -31 44 11.54  .70251 1.6151 139.9 21.6  47d  26
2020 05 26 15  19 08 39.748   -31 43 05.00  .70245 1.6153 139.9 21.6  47d  26
2020 05 26 16  19 08 35.538   -31 41 58.44  .70240 1.6155 140.0 21.6  47d  26
2020 05 26 17  19 08 31.323   -31 40 51.85  .70235 1.6158 140.0 21.6  47d  25
2020 05 26 18  19 08 27.104   -31 39 45.24  .70230 1.6160 140.1 21.6  47d  25
2020 05 26 19  19 08 22.880   -31 38 38.61  .70224 1.6162 140.1 21.6  47d  25
2020 05 26 20  19 08 18.652   -31 37 31.95  .70219 1.6165 140.2 21.6  47d  25
2020 05 26 21  19 08 14.419   -31 36 25.27  .70214 1.6167 140.3 21.6  47d  25
2020 05 26 22  19 08 10.182   -31 35 18.56  .70209 1.6169 140.3 21.6  47d  25
2020 05 26 23  19 08 05.940   -31 34 11.83  .70204 1.6172 140.4 21.6  47d  25
2020 05 27 00  19 08 01.694   -31 33 05.08  .70198 1.6174 140.4 21.6  47d  25
2020 05 27 01  19 07 57.444   -31 31 58.30  .70193 1.6176 140.5 21.6  47d  25
2020 05 27 02  19 07 53.189   -31 30 51.50  .70188 1.6178 140.5 21.6  47d  25
2020 05 27 03  19 07 48.930   -31 29 44.67  .70183 1.6181 140.6 21.6  47d  25
2020 05 27 04  19 07 44.666   -31 28 37.82  .70178 1.6183 140.6 21.6  47d  25
2020 05 27 05  19 07 40.398   -31 27 30.95  .70174 1.6185 140.7 21.6  47d  25
2020 05 27 06  19 07 36.125   -31 26 24.06  .70169 1.6188 140.8 21.6  47d  25
2020 05 27 07  19 07 31.849   -31 25 17.14  .70164 1.6190 140.8 21.6  47d  25
2020 05 27 08  19 07 27.567   -31 24 10.19  .70159 1.6192 140.9 21.6  47d  26
2020 05 27 09  19 07 23.282   -31 23 03.23  .70154 1.6195 140.9 21.6  47d  26
2020 05 27 10  19 07 18.992   -31 21 56.24  .70149 1.6197 141.0 21.6  48d  26
2020 05 27 11  19 07 14.698   -31 20 49.22  .70145 1.6199 141.0 21.6  48d  26
2020 05 27 12  19 07 10.400   -31 19 42.19  .70140 1.6201 141.1 21.6  48d  26
2020 05 27 13  19 07 06.097   -31 18 35.13  .70135 1.6204 141.1 21.6  48d  26
2020 05 27 14  19 07 01.790   -31 17 28.05  .70131 1.6206 141.2 21.6  48d  26
2020 05 27 15  19 06 57.479   -31 16 20.94  .70126 1.6208 141.2 21.6  48d  26
2020 05 27 16  19 06 53.163   -31 15 13.81  .70122 1.6211 141.3 21.6  48d  26
2020 05 27 17  19 06 48.843   -31 14 06.66  .70117 1.6213 141.4 21.6  48d  26
2020 05 27 18  19 06 44.520   -31 12 59.48  .70113 1.6215 141.4 21.6  49d  26
2020 05 27 19  19 06 40.191   -31 11 52.29  .70108 1.6218 141.5 21.6  49d  26
2020 05 27 20  19 06 35.859   -31 10 45.06  .70104 1.6220 141.5 21.6  49d  25
2020 05 27 21  19 06 31.522   -31 09 37.82  .70099 1.6222 141.6 21.5  49d  25
2020 05 27 22  19 06 27.182   -31 08 30.55  .70095 1.6225 141.6 21.5  49d  25
2020 05 27 23  19 06 22.837   -31 07 23.27  .70091 1.6227 141.7 21.5  49d  25
2020 05 28 00  19 06 18.488   -31 06 15.95  .70086 1.6229 141.7 21.5  49d  25
2020 05 28 01  19 06 14.135   -31 05 08.62  .70082 1.6231 141.8 21.5  49d  25
2020 05 28 02  19 06 09.777   -31 04 01.26  .70078 1.6234 141.9 21.5  49d  25
2020 05 28 03  19 06 05.416   -31 02 53.88  .70074 1.6236 141.9 21.5  49d  25
2020 05 28 04  19 06 01.050   -31 01 46.48  .70069 1.6238 142.0 21.5  49d  26
2020 05 28 05  19 05 56.681   -31 00 39.06  .70065 1.6241 142.0 21.5  49d  26
2020 05 28 06  19 05 52.307   -30 59 31.61  .70061 1.6243 142.1 21.5  49d  26
2020 05 28 07  19 05 47.929   -30 58 24.14  .70057 1.6245 142.1 21.5  49d  26
2020 05 28 08  19 05 43.547   -30 57 16.65  .70053 1.6248 142.2 21.5  49d  26
2020 05 28 09  19 05 39.161   -30 56 09.13  .70049 1.6250 142.3 21.5  50d  26
2020 05 28 10  19 05 34.771   -30 55 01.60  .70045 1.6252 142.3 21.5  50d  26
2020 05 28 11  19 05 30.378   -30 53 54.04  .70041 1.6255 142.4 21.5  50d  26
2020 05 28 12  19 05 25.980   -30 52 46.46  .70038 1.6257 142.4 21.5  50d  26